"Pseudo-MPEC" for P10NHzj

Created 2019 May 16 15:07:16 UT using Find_Orb

Click here for an explanation of pseudo-MPECs

 
 Astrometry: 
     P10NHzj  C2019 05 09d6NCtV0b82N-V]Astrometry9`PZg0lR+!iR$6thldqi9'y!?eO'F51
     P10NHzj  C2019 05 09Ag@redacted;']KJ[b@=FMA\G0N2'=%.p'[/bv)]Zclick.S*ipaF51
     P10NHzj  C2019 05 09/3-\UC^eqJFhO.^UisdROhere;52OC@3f6fortuI[2$$pCO@C=o+F51
     P10NHzj  C2019 05 09U$uNB'W]j29dF%tT#Vf\4\YdVexplanation#'K.7)]?LdwcZAPMF51

Station data:
(F51) Pan-STARRS 1, Haleakala  (N20.707235 W156.255910)  US/Hawaii.
   Observers N. Primak, A. Schultz, S. Watters, J. Thiel, T. Goggia. Measurer
   PS1 Science Consortium. 1.8-m Ritchey-Chrétien + CCD.

Orbital elements:  P10NHzj
   Perihelion 2019 Oct 26.625265 +/- 604 TT = 15:00:22 (JD 2458783.125265)
Epoch 2019 May  9.0 TT = JDT 2458612.5   Earth MOID: 0.5793   Ju: 0.9057
M 328.95219860 +/- 80               (J2000 ecliptic)          AutoNEOCP
n   0.18196485 +/- 0.221            Peri.  145.84643 +/- 50
a   3.08421307 +/- 2.5              Node   140.78189 +/- 45
e   0.4904813 +/- 0.247             Incl.   15.29346 +/- 55
P   5.42                   H 18.9   G  0.15   U 11.8  SR
q 1.57146415 +/- 1.77    Q 4.59696200 +/- 45.2
From 4 observations 2019 May 9 (44.7 min); mean residual 0".05
Residuals in arcseconds: 
190509 F51  .02+  .01-    190509 F51  .03+  .12+    
190509 F51  .04-  .04-    190509 F51  .01-  .07-    

Ephemerides (geocentric):
Date (UTC) HH   RA              Dec         delta   r     elong  mag " sig PA
---- -- -- --  -------------   -----------  ------ ------ -----  --- ---- ---
2019 05 16 15  12 52 18.790   +18 17 04.15  1.3914 2.1471 126.0 22.3 1244  20
2019 05 16 16  12 52 17.886   +18 17 01.59  1.3915 2.1469 125.9 22.3 1252  20
2019 05 16 17  12 52 16.985   +18 16 58.98  1.3916 2.1467 125.9 22.3 1261  20
2019 05 16 18  12 52 16.088   +18 16 56.34  1.3918 2.1464 125.8 22.3 1269  20
2019 05 16 19  12 52 15.193   +18 16 53.67  1.3919 2.1462 125.8 22.3 1278  20
2019 05 16 20  12 52 14.301   +18 16 50.96  1.3920 2.1460 125.8 22.3 1286  20
2019 05 16 21  12 52 13.412   +18 16 48.21  1.3921 2.1458 125.7 22.3 1295  20
2019 05 16 22  12 52 12.526   +18 16 45.43  1.3923 2.1455 125.7 22.3 1303  20
2019 05 16 23  12 52 11.643   +18 16 42.61  1.3924 2.1453 125.7 22.3 1312  20
2019 05 17 00  12 52 10.763   +18 16 39.76  1.3925 2.1451 125.6 22.3 1320  20
2019 05 17 01  12 52 09.886   +18 16 36.87  1.3926 2.1449 125.6 22.3 1329  20
2019 05 17 02  12 52 09.012   +18 16 33.95  1.3928 2.1446 125.5 22.3 1338  20
2019 05 17 03  12 52 08.141   +18 16 30.99  1.3929 2.1444 125.5 22.3 1346  20
2019 05 17 04  12 52 07.274   +18 16 28.00  1.3930 2.1442 125.5 22.3 1355  20
2019 05 17 05  12 52 06.409   +18 16 24.97  1.3932 2.1440 125.4 22.3 1363  20
2019 05 17 06  12 52 05.547   +18 16 21.90  1.3933 2.1437 125.4 22.3 1372  20
2019 05 17 07  12 52 04.688   +18 16 18.80  1.3934 2.1435 125.4 22.3 1381  20
2019 05 17 08  12 52 03.832   +18 16 15.67  1.3936 2.1433 125.3 22.3 1390  20
2019 05 17 09  12 52 02.980   +18 16 12.50  1.3937 2.1431 125.3 22.3 1398  21
2019 05 17 10  12 52 02.130   +18 16 09.29  1.3938 2.1428 125.2 22.3 1407  21
2019 05 17 11  12 52 01.283   +18 16 06.05  1.3939 2.1426 125.2 22.3 1416  21
2019 05 17 12  12 52 00.440   +18 16 02.78  1.3941 2.1424 125.2 22.3 1425  21
2019 05 17 13  12 51 59.599   +18 15 59.47  1.3942 2.1422 125.1 22.3 1433  21
2019 05 17 14  12 51 58.761   +18 15 56.12  1.3943 2.1419 125.1 22.3 1442  21
2019 05 17 15  12 51 57.927   +18 15 52.74  1.3945 2.1417 125.1 22.3 1451  21
2019 05 17 16  12 51 57.095   +18 15 49.33  1.3946 2.1415 125.0 22.3 1460  21
2019 05 17 17  12 51 56.267   +18 15 45.87  1.3947 2.1412 125.0 22.3 1469  21
2019 05 17 18  12 51 55.441   +18 15 42.39  1.3949 2.1410 124.9 22.3 1478  21
2019 05 17 19  12 51 54.619   +18 15 38.87  1.3950 2.1408 124.9 22.3 1487  21
2019 05 17 20  12 51 53.800   +18 15 35.31  1.3951 2.1406 124.9 22.3 1496  21
2019 05 17 21  12 51 52.983   +18 15 31.72  1.3953 2.1403 124.8 22.3 1505  21
2019 05 17 22  12 51 52.170   +18 15 28.09  1.3954 2.1401 124.8 22.3 1514  21
2019 05 17 23  12 51 51.360   +18 15 24.43  1.3955 2.1399 124.7 22.3 1523  21
2019 05 18 00  12 51 50.553   +18 15 20.73  1.3957 2.1397 124.7 22.3 1532  21
2019 05 18 01  12 51 49.749   +18 15 17.00  1.3958 2.1394 124.7 22.3 1541  21
2019 05 18 02  12 51 48.947   +18 15 13.24  1.3959 2.1392 124.6 22.3 1550  21
2019 05 18 03  12 51 48.149   +18 15 09.43  1.3961 2.1390 124.6 22.3 1559  21
2019 05 18 04  12 51 47.354   +18 15 05.60  1.3962 2.1388 124.6 22.3 1568  21
2019 05 18 05  12 51 46.562   +18 15 01.73  1.3963 2.1385 124.5 22.3 1577  21
2019 05 18 06  12 51 45.774   +18 14 57.82  1.3965 2.1383 124.5 22.3 1586  21
2019 05 18 07  12 51 44.988   +18 14 53.88  1.3966 2.1381 124.4 22.3 1595  21
2019 05 18 08  12 51 44.205   +18 14 49.90  1.3967 2.1379 124.4 22.3 1605  21
2019 05 18 09  12 51 43.425   +18 14 45.89  1.3969 2.1376 124.4 22.3 1614  21
2019 05 18 10  12 51 42.649   +18 14 41.85  1.3970 2.1374 124.3 22.3 1623  22
2019 05 18 11  12 51 41.875   +18 14 37.77  1.3971 2.1372 124.3 22.3 1632  22
2019 05 18 12  12 51 41.104   +18 14 33.65  1.3973 2.1370 124.3 22.3 1642  22
2019 05 18 13  12 51 40.337   +18 14 29.50  1.3974 2.1367 124.2 22.3 1651  22
2019 05 18 14  12 51 39.572   +18 14 25.32  1.3975 2.1365 124.2 22.3 1660  22